Flag for Switzerland Weather past 2 weeks in Delémont, Jura, Switzerland

Now
90 °F

Hot.


Feels Like: 88 °F
Forecast: 59 / 88 °F
Wind: 3 mph from Southeast

Location: Grenchen

Current Time: Aug 30, 2015 at 6:43:54 PM

Latest Report: Aug 30, 2015 at 6:00 PM


Visibility: N/A

Pressure: 29.96 "Hg

Humidity: 29%

Dew point: 54 °F

Location of DelémontLocation

Historic Weather in Delémont — Graph

°F

Delémont temperature yesterday

Maximum temperature yesterday: 89 °F (at 5:00 PM)
Minimum temperature yesterday: 59 °F (at 7:00 AM)
Average temperature yesterday: 75 °F

Past Weeks' High & Low Weather Summary

 TemperatureHumidityPressure
High90 °F (Aug 30, 4:00 PM)100% (Aug 26, 6:00 AM)30.27 "Hg (Aug 26, 6:00 AM)
Low47 °F (Aug 26, 6:00 AM)30% (Aug 25, 4:00 PM)29.73 "Hg (Aug 24, 7:00 AM)
Average65 °F72%30.02 "Hg
* Reported Aug 15 5:00 PM — Aug 30 5:00 PM, Delémont, Weather by CustomWeather, © 2015

Note: Actual official high and low records may vary slightly from our data, if they occured in-between our weather recording intervals... More about our weather records

Advertising

Delémont weather history for previous 24 hours

 ConditionsComfort  
Time TempWeatherWind HumidityBarometerVisibility
5:00 PM
Sun, Aug 30
90 °FHot.5 mph31%29.97 "HgN/A
4:00 PM90 °FHot.6 mph33%29.98 "HgN/A
3:00 PM89 °FHot.5 mph36%30.01 "HgN/A
2:00 PM86 °FWarm.1 mph41%30.04 "HgN/A
1:00 PM84 °FPleasantly warm.3 mph40%30.07 "HgN/A
12:00 PM82 °FWarm.2 mph45%30.10 "HgN/A
11:00 AM78 °FWarm.3 mph51%30.12 "HgN/A
10:00 AM74 °FMild.2 mph71%30.13 "HgN/A
9:00 AM71 °FMild.1 mph80%30.15 "HgN/A
8:00 AM65 °FMild.2 mph93%30.17 "HgN/A
7:00 AM62 °FCool.2 mph98%30.17 "HgN/A
6:00 AM63 °FMild.2 mph96%30.16 "HgN/A
5:00 AM67 °FMild.3 mph87%30.14 "HgN/A
3:00 AM64 °FMild.2 mph93%30.14 "HgN/A
2:00 AM67 °FMild.3 mph84%30.13 "HgN/A
1:00 AM70 °FMild.3 mph79%30.12 "HgN/A
12:00 AM69 °FMild.2 mph80%30.12 "HgN/A
11:00 PM
Sat, Aug 29
72 °FMild.2 mph75%30.10 "HgN/A
10:00 PM74 °FMild.3 mph69%30.09 "HgN/A
9:00 PM76 °FMild.3 mph66%30.07 "HgN/A
7:00 PM87 °FWarm.3 mph40%30.01 "HgN/A
6:00 PM89 °FHot.6 mph36%30.02 "HgN/A
Weather by CustomWeather, © 2015

See weather overviewHow to use our weather pages